Location: Unspecified
(47.8330°N, 0.0000°E)
Time: 09:38:38
(UTC+00:00)

VELOX 1 - Pass Details

Date: 30 August 2019
Orbit: 629 x 643 km, 98.2° (Epoch: 15 September)

Event Time Altitude Azimuth Distance (km) Brightness Sun altitude
Exits shadow 01:46:31 25° 324° (NW) 1,276 ? -28.4°
Drops below altitude 10° 01:48:33 10° 336° (NNW) 2,027 ? -28.2°
Sets 01:50:49 0° 342° (NNW) 2,942 ? -28.0°
